Weather History for Ukiah, CA

Change the Weather History Date:

Wednesday, March 21, 2012

  Actual Average Record
Temperature  
Mean Temperature 56 °F 52 °F  
Max Temperature 62 °F 64 °F 90 °F (1925)
Min Temperature 50 °F 40 °F 27 °F (1924)
Degree Days  
Heating Degree Days 9 13  
Month to date heating degree days 328 284  
Since 1 July heating degree days 2566 2517  
Cooling Degree Days 0 0  
Month to date cooling degree days 0 0  
Year to date cooling degree days 0 0  
Growing Degree Days 6 (Base 50)    
Moisture  
Dew Point 49 °F    
Average Humidity 78    
Maximum Humidity 100    
Minimum Humidity 55    
Precipitation  
Precipitation 0.06 in 0.15 in 2.07 in (1975)
Month to date precipitation 3.97 3.96  
Year to date precipitation 11.79 17.51  
Since 1 July precipitation 18.51 31.48  
Snow  
Snow 0.00 in - - ()
Month to date snowfall 0.0  
Since 1 July snowfall 0.0  
Snow Depth 0.00 in    
Sea Level Pressure  
Sea Level Pressure 30.09 in    
Wind  
Wind Speed 2 mph (South)    
Max Wind Speed 8 mph    
Max Gust Speed 21 mph    
Visibility 7 miles    
Events Rain    
T = Trace of Precipitation, MM = Missing Value Source: NWS Daily Summary

Daily Weather History Graph

Daily Weather History Graph

Search for Another Location

Airport:

Trip Planner

Search our weather history database for the weather conditions in past years. The results will help you decide how hot, cold, wet, or windy it might be!

Date:

Astronomy

Mar. 21, 2012 Rise Set
Actual Time 7:13 AM PDT 7:26 PM PDT
Civil Twilight 6:47 AM PDT 7:53 PM PDT
Nautical Twilight 6:15 AM PDT 8:24 PM PDT
Astronomical Twilight 5:44 AM PDT 8:56 PM PDT
Moon 6:27 AM PDT (3/21) 6:58 PM PDT (3/21)
Length of Visible Light 13h 06m
Length of Day
12h 12m
Waning Crescent, 1% of the Moon is Illuminated
Mar 21
Waning Crescent
Mar 22
New
Mar 30
First Quarter
Apr 6
Full
Apr 13
Last Quarter

Hourly Weather History & Observations

Time (PDT) Temp. Dew Point Humidity Pressure Visibility Wind Dir Wind Speed Gust Speed Precip Events Conditions
12:03 AM 50.0 °F 48.2 °F 94% 30.20 in 8.0 mi Calm Calm - N/A   Overcast
12:12 AM 50.0 °F 48.2 °F 94% 30.20 in 5.0 mi Calm Calm - N/A   Overcast
12:28 AM 50.0 °F 48.2 °F 94% 30.19 in 4.0 mi Calm Calm - N/A   Overcast
12:51 AM 50.0 °F 48.2 °F 94% 30.19 in 10.0 mi Calm Calm - N/A   Overcast
12:56 AM 50.0 °F 48.9 °F 96% 30.18 in 10.0 mi Calm Calm - N/A   Overcast
1:10 AM 50.0 °F 48.2 °F 94% 30.18 in 10.0 mi Calm Calm - N/A   Overcast
1:43 AM 50.0 °F 48.2 °F 94% 30.18 in 7.0 mi Calm Calm - N/A   Overcast
1:56 AM 50.0 °F 48.9 °F 96% 30.16 in 4.0 mi Calm Calm - N/A   Overcast
2:11 AM 50.0 °F 48.2 °F 94% 30.16 in 2.0 mi Calm Calm - N/A   Overcast
2:35 AM 50.0 °F 48.2 °F 94% 30.17 in 3.0 mi North 3.5 mph - 0.01 in   Overcast
2:47 AM 50.0 °F 48.2 °F 94% 30.16 in 4.0 mi Calm Calm - 0.01 in   Overcast
2:56 AM 50.0 °F 48.9 °F 96% 30.15 in 4.0 mi Calm Calm - 0.01 in   Overcast
3:10 AM 50.0 °F 48.2 °F 94% 30.15 in 2.5 mi Calm Calm - N/A   Overcast
3:51 AM 50.0 °F 48.2 °F 94% 30.14 in 3.0 mi Calm Calm - N/A   Overcast
3:56 AM 50.0 °F 48.9 °F 96% 30.13 in 3.0 mi Calm Calm - N/A   Overcast
4:06 AM 50.0 °F 50.0 °F 100% 30.14 in 1.8 mi Calm Calm - 0.02 in Rain Rain
4:15 AM 50.0 °F 48.2 °F 94% 30.14 in 2.0 mi Calm Calm - 0.04 in Rain Rain
4:27 AM 50.0 °F 48.2 °F 94% 30.13 in 4.0 mi Calm Calm - 0.05 in Rain Light Rain
4:37 AM 50.0 °F 50.0 °F 100% 30.13 in 5.0 mi Calm Calm - 0.05 in Rain Light Rain
4:56 AM 50.0 °F 50.0 °F 100% 30.12 in 4.0 mi Calm Calm - 0.05 in Rain Light Rain
5:49 AM 50.0 °F 48.2 °F 94% 30.12 in 9.0 mi Calm Calm - 0.01 in   Overcast
5:56 AM 50.0 °F 48.9 °F 96% 30.11 in 8.0 mi Calm Calm - 0.01 in   Overcast
6:08 AM 50.0 °F 48.2 °F 94% 30.12 in 7.0 mi Calm Calm - N/A   Overcast
6:56 AM 50.0 °F 48.9 °F 96% 30.12 in 8.0 mi Calm Calm - N/A   Overcast
7:56 AM 50.0 °F 50.0 °F 100% 30.13 in 7.0 mi Calm Calm - N/A   Overcast
8:08 AM 50.0 °F 48.2 °F 94% 30.12 in 1.8 mi Calm Calm - 0.01 in Rain Light Rain
8:19 AM 50.0 °F 50.0 °F 100% 30.12 in 3.0 mi Calm Calm - 0.01 in Rain Light Rain
8:56 AM 50.0 °F 50.0 °F 100% 30.11 in 8.0 mi Calm Calm - 0.01 in   Overcast
9:56 AM 52.0 °F 50.0 °F 93% 30.11 in 9.0 mi Calm Calm - N/A   Overcast
10:12 AM 51.8 °F 51.8 °F 100% 30.11 in 1.8 mi Calm Calm - 0.01 in Rain Light Rain
10:18 AM 53.6 °F 51.8 °F 94% 30.11 in 2.0 mi Calm Calm - 0.02 in Rain Light Rain
10:26 AM 53.6 °F 51.8 °F 94% 30.11 in 5.0 mi Calm Calm - N/A Rain Light Rain
10:56 AM 55.0 °F 53.1 °F 93% 30.10 in 10.0 mi South 5.8 mph - 0.02 in   Overcast
11:04 AM 55.4 °F 53.6 °F 94% 30.11 in 10.0 mi Variable 4.6 mph - N/A   Overcast
11:56 AM 55.9 °F 52.0 °F 87% 30.08 in 10.0 mi SSE 5.8 mph - 0.00 in Rain Light Rain
12:06 PM 57.2 °F 53.6 °F 88% 30.09 in 10.0 mi SE 8.1 mph - 0.00 in   Overcast
12:56 PM 59.0 °F 53.1 °F 81% 30.06 in 10.0 mi SSE 5.8 mph - 0.00 in   Overcast
1:56 PM 60.1 °F 52.0 °F 75% 30.04 in 10.0 mi Variable 4.6 mph - N/A   Overcast
2:42 PM 59.0 °F 51.8 °F 77% 30.04 in 10.0 mi WSW 4.6 mph - 0.00 in Rain Light Rain
2:52 PM 60.8 °F 50.0 °F 68% 30.03 in 10.0 mi SSW 3.5 mph - 0.00 in   Overcast
2:56 PM 60.1 °F 48.9 °F 67% 30.02 in 10.0 mi Calm Calm - 0.00 in   Overcast
3:56 PM 61.0 °F 46.0 °F 58% 30.00 in 10.0 mi South 8.1 mph 20.7 mph N/A   Overcast
4:56 PM 61.0 °F 45.0 °F 56% 29.99 in 10.0 mi SW 3.5 mph - N/A   Overcast
5:56 PM 60.1 °F 44.1 °F 55% 29.97 in 10.0 mi Calm Calm - N/A   Overcast
6:56 PM 57.2 °F 46.4 °F 67% 29.97 in 10.0 mi WSW 6.9 mph - N/A   Overcast
7:56 PM 57.0 °F 46.9 °F 69% 29.97 in 10.0 mi SSW 6.9 mph - N/A   Overcast
8:56 PM 55.9 °F 48.0 °F 75% 29.97 in 10.0 mi SSE 6.9 mph - N/A   Overcast
9:56 PM 54.0 °F 48.9 °F 83% 29.97 in 9.0 mi Calm Calm - 0.00 in Rain Light Rain
10:56 PM 53.1 °F 50.0 °F 89% 29.96 in 10.0 mi Calm Calm - 0.01 in   Overcast
11:46 PM 51.8 °F 50.0 °F 94% 29.98 in 8.0 mi SE 4.6 mph - 0.01 in Rain Light Rain
11:53 PM 51.8 °F 50.0 °F 94% 29.98 in 10.0 mi Calm Calm - 0.01 in   Overcast
11:56 PM 52.0 °F 50.0 °F 93% 29.97 in 10.0 mi Calm Calm - 0.01 in   Overcast